Location: Newark
(47.2333°N, 7.7667°E)
Time: 21:08:48
(UTC+00:00)

Envisat - Visible Passes

Search period start: 23 February 2020 00:00
Search period end: 04 March 2020 00:00
Orbit: 764 x 766 km, 98.1° (Epoch: 23 February)

Date Brightness Start Highest point End Pass type
(mag) Time Alt. Az. Time Alt. Az. Time Alt. Az.
23 Feb 6.1 04:57:31 10° NE 05:00:58 18° E 05:04:24 10° SE visible
23 Feb 4.8 17:53:31 10° SSW 17:58:12 36° W 18:02:54 10° NNW visible
24 Feb 6.7 19:00:36 10° W 19:01:10 10° W 19:01:43 10° WNW visible
25 Feb 5.3 05:22:15 10° NNE 05:26:43 30° E 05:31:08 10° SSE visible
25 Feb 5.7 18:19:58 10° SW 18:23:53 22° W 18:27:50 10° NW visible
26 Feb 6.3 04:46:47 10° NE 04:49:32 14° E 04:52:16 10° ESE visible
26 Feb 4.4 17:41:58 10° S 17:46:50 45° W 17:51:43 10° NNW visible
27 Feb 6.4 18:47:20 10° WSW 18:49:42 13° W 18:52:03 10° WNW visible
28 Feb 5.7 05:11:12 10° NE 05:15:19 24° E 05:19:25 10° SSE visible
28 Feb 5.4 18:08:12 10° SSW 18:12:29 27° W 18:16:48 10° NW visible
29 Feb 6.6 04:36:27 10° ENE 04:38:04 11° E 04:39:41 10° ESE visible
01 Mar 4.7 05:36:12 10° NNE 05:40:59 40° E 05:45:45 10° SSE visible
01 Mar 6.2 18:35:04 10° SW 18:38:14 16° W 18:41:26 10° NW visible
02 Mar 6.0 05:00:14 10° NE 05:03:53 20° E 05:07:32 10° SE visible
02 Mar 5.0 17:56:31 10° SSW 18:01:06 34° W 18:05:42 10° NNW visible
